Mobile Downtown, AL

8:29 AM CDT on April 30, 2017 (GMT -0500)
Mobile Downtown

Weather History for KBFM - January, 2013

Change the Weather History Date:

Wednesday, January 23, 2013

  Actual Average Record
Temperature  
Mean Temperature 50 °F -  
Max Temperature 62 °F 58 °F 75 °F (2012)
Min Temperature 37 °F 39 °F 25 °F (2003)
Degree Days  
Heating Degree Days 16    
Moisture  
Dew Point 43 °F    
Average Humidity 79    
Maximum Humidity 96    
Minimum Humidity 58    
Precipitation  
Precipitation 0.00 in - - ()
Sea Level Pressure  
Sea Level Pressure 30.36 in    
Wind  
Wind Speed 3 mph (SSW)    
Max Wind Speed 9 mph    
Max Gust Speed -    
Visibility 10 miles    
Events      
Averages and records for this station are not official NWS values.
T = Trace of Precipitation, MM = Missing Value Source: NWS Daily Summary

Daily Weather History Graph

Daily Weather History Graph

Search for Another Location

Airport or City:

Trip Planner

Search our weather history database for the weather conditions in past years. The results will help you decide how hot, cold, wet, or windy it might be!

Date:

Astronomy

Jan. 23, 2013 Rise Set
Actual Time 6:47 AM CST 5:20 PM CST
Civil Twilight 6:22 AM CST 5:46 PM CST
Nautical Twilight 5:53 AM CST 6:15 PM CST
Astronomical Twilight 5:24 AM CST 6:44 PM CST
Moon 2:34 PM CST (1/23) 3:56 AM CST (1/23)
Length of Visible Light 11h 24m
Length of Day
10h 32m
Waxing Gibbous, 89% of the Moon is Illuminated
Jan 23
Waxing Gibbous
Jan 26
Full
Feb 3
Last Quarter
Feb 10
New
Feb 17
First Quarter

Hourly Weather History & Observations

Time (CST) Temp. Windchill Dew Point Humidity Pressure Visibility Wind Dir Wind Speed Gust Speed Precip Events Conditions
12:53 AM 37.0 °F - 36.0 °F 96% 30.37 in 10.0 mi Calm Calm - N/A   Clear
1:53 AM 37.0 °F - 35.1 °F 93% 30.35 in 10.0 mi Calm Calm - N/A   Clear
2:53 AM 37.0 °F - 36.0 °F 96% 30.36 in 9.0 mi Calm Calm - N/A   Clear
3:27 AM 37.4 °F - 35.6 °F 93% 30.36 in 10.0 mi Calm Calm - N/A   Clear
3:53 AM 37.0 °F - 36.0 °F 96% 30.36 in 10.0 mi Calm Calm - N/A   Clear
4:53 AM 37.0 °F 34.5 °F 36.0 °F 96% 30.36 in 10.0 mi NW 3.5 mph - N/A   Clear
5:53 AM 37.0 °F 33.3 °F 36.0 °F 96% 30.38 in 10.0 mi NNW 4.6 mph - N/A   Clear
6:53 AM 37.9 °F 35.5 °F 36.0 °F 93% 30.40 in 10.0 mi NW 3.5 mph - N/A   Scattered Clouds
7:53 AM 43.0 °F - 39.0 °F 86% 30.40 in 10.0 mi Calm Calm - N/A   Mostly Cloudy
8:53 AM 48.0 °F - 41.0 °F 77% 30.41 in 10.0 mi SSE 3.5 mph - N/A   Clear
9:53 AM 55.0 °F - 42.1 °F 62% 30.43 in 10.0 mi ENE 4.6 mph - N/A   Clear
10:53 AM 57.9 °F - 43.0 °F 58% 30.42 in 10.0 mi SE 8.1 mph - 0.00 in   Clear
11:53 AM 59.0 °F - 45.0 °F 60% 30.38 in 10.0 mi SE 8.1 mph - N/A   Clear
12:53 PM 60.1 °F - 48.0 °F 64% 30.35 in 10.0 mi SSE 9.2 mph - N/A   Clear
1:53 PM 61.0 °F - 50.0 °F 67% 30.33 in 10.0 mi SSE 9.2 mph - N/A   Scattered Clouds
3:53 PM 62.1 °F - 46.9 °F 58% 30.33 in 10.0 mi SSW 5.8 mph - N/A   Scattered Clouds
4:53 PM 61.0 °F - 46.9 °F 60% 30.33 in 10.0 mi SW 6.9 mph - N/A   Scattered Clouds
5:53 PM 57.9 °F - 46.0 °F 65% 30.32 in 10.0 mi SSW 3.5 mph - N/A   Partly Cloudy
6:53 PM 55.9 °F - 48.9 °F 77% 30.32 in 10.0 mi SW 3.5 mph - N/A   Clear
7:53 PM 55.0 °F - 50.0 °F 83% 30.32 in 10.0 mi SSW 3.5 mph - N/A   Clear
8:53 PM 55.0 °F - 48.9 °F 80% 30.33 in 10.0 mi SSW 4.6 mph - N/A   Clear
9:53 PM 55.0 °F - 48.9 °F 80% 30.33 in 10.0 mi SW 5.8 mph - N/A   Clear
10:53 PM 54.0 °F - 48.9 °F 83% 30.33 in 10.0 mi SW 4.6 mph - N/A   Clear
11:53 PM 53.1 °F - 48.9 °F 86% 30.33 in 10.0 mi WSW 3.5 mph - N/A   Clear